Location: Altamira
(10.5079°N, 66.8544°W)
Time: 17:59:39
(UTC+00:00)

Cosmos 1867 - Pass Details

Date: 13 December 2025
Orbit: 777 x 797 km, 65.0° (Epoch: 14 January)

Event Time Altitude Azimuth Distance (km) Brightness Sun altitude
Rises 22:58:57 0° 336° (NNW) 3,283 6.8 -12.5°
Reaches altitude 10° 23:01:23 10° 336° (NNW) 2,352 6.1 -13.1°
Maximum altitude 23:06:48 83° 248° (WSW) 798 3.6 -14.3°
Drops below altitude 10° 23:12:11 10° 161° (SSE) 2,341 6.0 -15.6°
Sets 23:14:35 0° 160° (SSE) 3,266 6.8 -16.1°
